Weather History for KPBG - February, 2012

Change the Weather History Date:

Saturday, February 18, 2012

  Actual Average Record
Temperature  
Mean Temperature 33 °F 22 °F  
Max Temperature 41 °F 32 °F - ()
Min Temperature 24 °F 12 °F - ()
Degree Days  
Heating Degree Days 32 43  
Month to date heating degree days 670 823  
Since 1 July heating degree days 4360 5199  
Cooling Degree Days 0 0  
Month to date cooling degree days 0  
Year to date cooling degree days 0  
Moisture  
Dew Point 20 °F    
Average Humidity 52    
Maximum Humidity 69    
Minimum Humidity 34    
Precipitation  
Precipitation 0.00 in - - ()
Month to date precipitation 0.20  
Year to date precipitation 1.80  
Sea Level Pressure  
Sea Level Pressure 29.93 in    
Wind  
Wind Speed 5 mph (WNW)    
Max Wind Speed 12 mph    
Max Gust Speed 17 mph    
Visibility 10 miles    
Events      
T = Trace of Precipitation, MM = Missing Value Source: NWS Daily Summary

Daily Weather History Graph

Daily Weather History Graph

Search for Another Location

Airport or City:

Trip Planner

Search our weather history database for the weather conditions in past years. The results will help you decide how hot, cold, wet, or windy it might be!

Date:

Astronomy

Feb. 18, 2012 Rise Set
Actual Time 6:50 AM EST 5:25 PM EST
Civil Twilight 6:20 AM EST 5:55 PM EST
Nautical Twilight 5:46 AM EST 6:29 PM EST
Astronomical Twilight 5:12 AM EST 7:03 PM EST
Moon 4:34 AM EST (2/18) 2:14 PM EST (2/18)
Length of Visible Light 11h 35m
Length of Day
10h 35m
Waning Crescent, 11% of the Moon is Illuminated
Feb 18
Waning Crescent
Feb 21
New
Feb 29
First Quarter
Mar 8
Full
Mar 14
Last Quarter

Hourly Weather History & Observations

Time (EST) Temp. Windchill Dew Point Humidity Pressure Visibility Wind Dir Wind Speed Gust Speed Precip Events Conditions
12:53 AM 35.1 °F 28.6 °F 21.9 °F 59% 29.89 in 10.0 mi West 8.1 mph - N/A   Overcast
1:53 AM 34.0 °F 28.0 °F 23.0 °F 64% 29.91 in 10.0 mi West 6.9 mph - N/A   Overcast
2:53 AM 33.1 °F 27.7 °F 23.0 °F 66% 29.90 in 10.0 mi West 5.8 mph - N/A   Mostly Cloudy
3:53 AM 32.0 °F 28.7 °F 23.0 °F 69% 29.91 in 10.0 mi West 3.5 mph - N/A   Clear
4:53 AM 33.1 °F 28.7 °F 21.9 °F 64% 29.92 in 10.0 mi West 4.6 mph - N/A   Overcast
5:53 AM 32.0 °F 27.5 °F 19.9 °F 61% 29.93 in 10.0 mi West 4.6 mph - N/A   Scattered Clouds
6:53 AM 33.1 °F - 19.9 °F 59% 29.94 in 10.0 mi Calm Calm - N/A   Overcast
7:53 AM 34.0 °F 29.8 °F 21.0 °F 59% 29.95 in 10.0 mi WSW 4.6 mph - N/A   Mostly Cloudy
8:53 AM 34.0 °F 25.0 °F 19.9 °F 56% 29.94 in 10.0 mi West 12.7 mph 17.3 mph N/A   Mostly Cloudy
10:53 AM 39.9 °F 35.1 °F 18.0 °F 41% 29.91 in 10.0 mi Variable 6.9 mph - N/A   Overcast
11:53 AM 39.0 °F 33.4 °F 16.0 °F 39% 29.88 in 10.0 mi WSW 8.1 mph - N/A   Scattered Clouds
12:53 PM 41.0 °F 37.1 °F 15.1 °F 35% 29.86 in 10.0 mi Variable 5.8 mph - N/A   Scattered Clouds
1:53 PM 37.9 °F 33.5 °F 19.9 °F 48% 29.85 in 10.0 mi East 5.8 mph - N/A   Overcast
2:53 PM 37.0 °F 33.3 °F 21.0 °F 52% 29.85 in 10.0 mi East 4.6 mph - N/A   Overcast
4:53 PM 35.1 °F 29.3 °F 23.0 °F 61% 29.87 in 10.0 mi SE 6.9 mph - N/A   Overcast
5:53 PM 35.1 °F 30.1 °F 19.0 °F 52% 29.91 in 10.0 mi NW 5.8 mph - N/A   Overcast
6:53 PM 32.0 °F 26.4 °F 18.0 °F 56% 29.94 in 10.0 mi NW 5.8 mph - N/A   Clear
7:53 PM 28.9 °F - 19.0 °F 67% 29.97 in 10.0 mi Calm Calm - N/A   Clear
8:53 PM 28.0 °F - 19.0 °F 69% 29.99 in 10.0 mi Calm Calm - N/A   Clear
9:53 PM 28.0 °F 22.8 °F 19.0 °F 69% 30.00 in 10.0 mi NW 4.6 mph - N/A   Partly Cloudy
10:53 PM 28.0 °F 22.8 °F 19.0 °F 69% 30.03 in 10.0 mi NNW 4.6 mph - N/A   Clear
11:53 PM 25.0 °F 15.5 °F 18.0 °F 75% 30.05 in 10.0 mi NNW 9.2 mph - N/A   Clear